Погода в Рязани

Погода в Рязани : погода сейчас, прогноз погоды и архив. Всё, что Вы хотите узнать о погоде в Рязани!

Хотите узнать прогноз погоды в Рязани? Тогда Вам сюда: Погода в Рязани

Поиск расширенной информации на нашем сайте:

Полезная информация:

Другие новости

Новости СМИ2

Главная страница сайта

Новости сайта

03.07.2017

Напоминаем, что на нашем специализированном сайте Метеоцентр.Азия вы можете получить высокодетализированные автоматические прогнозы погоды по пунктам России, СНГ и мира в авиационном формате (включающие направление и скорость ветра, видимость, явления погоды, количество и форму облачности, нижнюю и верхнюю границу облачности).

Рекомендуем:

Погода в Рязани - сегодня

Время (UTC), дата Ветер
(°,м/с) 
Видим.   Явления Облачность Т
(°С)
Тd
(°С)
f(%) Тe
(°С)
Pmin
(гПа)
dP
(гПа)
Po
(мм)
O2
(г/м3)
Тmin Tmax R s Состояние
почвы
03 16.07.19 050 (СВ) 20000 м    10/8 600 м средняя 
[Sc diur, vesp|Ac trans]
+15.2 +13.6 90 +24  1011.4  745  281  +14.3    0.0    сухая 
06 16.07.19 060 (СВ) 20000 м    10/0 средняя 
[Ac und]
+17.4 +13.7 79 +25  1011.2  -0.1  745  279           
09 16.07.19 150 (ЮВ) 20000 м    10/1 1000 м средняя, верхняя 
[Cu med, cong|Ac cast|Cs]
+24.3 +9.8 40 +25  1010.3  -0.5  744  274           
12 16.07.19 110 (В) 20000 м    9/5 1000 м средняя, верхняя 
[Cu med, cong|Ac cuf|Ci fib]
+25.9 +9.3 35 +26  1009  -1.1  743  272           
15 16.07.19 140 (ЮВ) 20000 м    9/3 1000 м средняя, верхняя 
[Cu med, cong|Ac cuf|Ci fib]
+25.9 +5.6 27 +26  1008.1  -0.9  743  272    +26.6       
18 16.07.19 310 (СЗ) 20000 м  {гроза}  10/4 600 м кучево-дожд., средняя, верхняя 
[Cb cap|Ac cuf|Ci ing]
+18.6 +12.9 69 +25  1009.9  1.4  744  278           
21 16.07.19 030 (СВ) 20000 м    10/0 средняя 
[Ac und]
+17.3 +12.8 75 +24  1009.5  -0.5  743  279           
00 17.07.19 тихо ()   10 км    9/3 1000 м средняя, верхняя 
[Sc diur, vesp|Ac As|Ci fib]
+15.7 +14.4 92 +24  1009.1  -0.5  743  280           
03 17.07.19 тихо ()   4000 м  дымка  9/3 1000 м средняя, верхняя 
[Sc diur, vesp|Ac As|Ci fib]
+15.3 +14.9 97 +24  1008.7  -0.4  743  280  +13.6        сухая 
06 17.07.19 330 (СЗ) 20000 м    9/9 600 м 
[Sc diur, vesp]
+19.6 +15.2 76 +30  1007.7  -0.8  742  276           
09 17.07.19 120 (ЮВ) 20000 м    9/8 600 м средняя 
[Cu Sc|Ac As]
+21.5 +11.9 54 +26  1006.5  -1  741  275           
12 17.07.19 060 (СВ) 20000 м    10/9 300 м средняя 
[Sc diur, vesp|Ac As]
+18.3 +13.9 76 +26  1006.3  -0.4  741  277           
15 17.07.19 060 (СВ) 4000 м  в посл. час ливневой дождь  10/10 300 м кучево-дожд. 
[Cb cap]
+16.6 +16.1 97 +28  1005.5  -0.9  740  278    +22.1  0.0     
18 17.07.19 тихо ()   4000 м  слаб. ливневой дождь  10/10 300 м кучево-дожд. 
[Cb cap]
+16.1 +15.7 97 +26  1005.3  0.1  740  278           
21 17.07.19 250 (З) 4000 м  дымка{ливн. осадки}  10/10 300 м 
[Sc diur, vesp]
+15.4 +15.1 98 +26  1004.6  -0.8  740  279           
00 18.07.19 250 (З) 1000 м  дымка{ливн. осадки, туман}  10/10 300 м 
[Sc diur, vesp]
+15.1 +14.8 98 +25  1004.5  0.1  740  279           
03 18.07.19 200 (Ю) 0500 м  туман  ?/?  
+14.8 +14.5 98 +24  1005.1  0.6  740  280  +14.7      влажная 
06 18.07.19 200 (Ю) 4000 м  дымка{туман}  10/10 300 м 
[Sc]
+16.8 +16.4 97 +30  1005.7  0.7  741  277  +14.6         
09 18.07.19 210 (ЮЗ) 10 км    8/8 300 м 
[Cu med, cong]
+21.3 +14.6 66 +30  1005.8  0.4  741  274           
12 18.07.19 230 (ЮЗ) 4-11{11}  20000 м    9/8 600 м кучево-дожд., средняя 
[Cb cap|Ac cuf]
+22.1 +10.3 47 +24  1005.7  741  274           
15 18.07.19 220 (ЮЗ) 3{11}  20000 м    8/6 600 м кучево-дожд., средняя, верхняя 
[Cb cap|Ac cuf|Ci ing]
+21.9 +8.8 43 +22  1006.2  0.4  741  275    +24.2       
18 18.07.19 200 (Ю) 20000 м  {ливн. осадки}  6/1 1000 м кучево-дожд., средняя, верхняя 
[Cb cap|Ac cuf|Ci fib]
+16.1 +10.3 68 +19  1007.3  0.8  742  280           
21 18.07.19 150 (ЮВ) 10 км    3/0 верхняя 
[Ci fib]
+12.9 +11.6 92 +18  1007.8  0.3  742  283           
00 19.07.19 170 (Ю) 10 км    3/0 верхняя 
[Ci fib]
+12.2 +11 92 +16  1007.7  0.1  742  284           
03 19.07.19 190 (Ю) 20000 м    4/0 средняя, верхняя 
[Ac trans|Ci fib]
+13.4 +11.5 88 +17  1007.7  742  283  +11.7    0.0    влажная 
Время (UTC), дата Ветер
(°,м/с) 
Видим.   Явления Облачность Т
(°С)
Тd
(°С)
f(%) Тe
(°С)
Pmin
(гПа)
dP
(гПа)
Po
(мм)
O2
(г/м3)
Тmin Tmax R s Состояние
почвы

Для получения пояснительной информации подведите курсор к названию столбца.

ПОГОДА в Рязани - архив

Всё, что Вы хотите узнать о погоде в Рязани - удобно и подробно!

Выберите нужную дату (начиная с 1 января 2018* года) и нажмите кнопку "Найти".
Будут отображены архивные сводки погоды по пункту Рязань, начиная с указанной даты.


Отображать данные в формате CSV (для использования в таблицах Excel)


Внимание! Наш архив погоды предназначен исключительно для личного некоммерческого использования в познавательных целях. Если Вам необходимы официальные справки о состоянии погоды (для производственных, юридических, коммерческих и т.п. целей), обращайтесь в органы Росгидромета.

*Примечание: данная дата относится к архиву по метеостанциям СССР (Россия, СНГ, Балтия).
Архив по метеостанциям Зарубежной Европы и Азии (кроме Китая) хранится 10 дней, по другим регионам земного шара (Китай, Африка, Америка, Австралия, Океания) - 1 день.

Рязань - район местоположения метеостанции


Название, широта, долгота, высота метеостанции:
Рязань 54.6°ш. 39.7°д. 158 м над ур. моря [Российская Федерация]

Дополнительная информация

В oтличие oт бoльшинства пoгoдных сайтoв мы публикуем пoдрoбную метеoинфoрмацию в детальнoм прoфессиoнальнoм фoрмате.

Характеристики температуры и влажнoсти вoздуха измеряются на высoте 2 м в тени вдали oт зданий и деревьев.
Скoрoсть ветра измеряется на высoте 10 м (на урoвне рoста челoвека скoрoсть ветра ниже в 1.5-2 раза). Если метеoстанция нахoдится в гoрoде или в лесу, тo скoрoсть ветра занижена на 2-4 м/с пo сравнению с oткрытым местoм. Скoрoсть ветра над акватoриями крупных рек и oзёр, а также на вершинах хoлмoв на 2-5 м/с выше, чем в oбычных услoвиях.
Атмoсфернoе давление в разных тoчках местнoсти мoжет значительнo oтличаться oт давления на метеoстанции, в зависимoсти oт услoвий рельефа (при пoдъёме на 10 м давление пoнижается примернo на 1 мм рт.ст.).